Погода в Панфилове

Погода в Панфилове : погода сейчас, прогноз погоды и архив. Всё, что Вы хотите узнать о погоде в Панфилове!

Хотите узнать прогноз погоды в Панфилове? Тогда Вам сюда: Погода в Панфилове

Поиск расширенной информации на нашем сайте:

Другие новости

Новости СМИ2

Главная страница сайта

Новости сайта

03.07.2017

Напоминаем, что на нашем специализированном сайте Метеоцентр.Азия вы можете получить высокодетализированные автоматические прогнозы погоды по пунктам России, СНГ и мира в авиационном формате (включающие направление и скорость ветра, видимость, явления погоды, количество и форму облачности, нижнюю и верхнюю границу облачности).


Погода в Панфилове - сегодня

Время (UTC), дата Ветер
(°,м/с) 
Видим.   Явления Облачность Т
(°С)
Тd
(°С)
f(%) Тe
(°С)
Pmin
(гПа)
dP
(гПа)
Po
(мм)
O2
(г/м3)
Тmin Tmax R s Состояние
почвы
09 22.06.18 340 (С) 20000 м    8/5 600 м кучево-дожд., средняя, верхняя 
[Cb cap|Ac lent|Cs]
+31 +6.6 22 +31  1003.9  -1.4  701  253           
12 22.06.18 180 (Ю) 20000 м    8/3 600 м кучево-дожд., средняя, верхняя 
[Cb cap|Ac lent|Cs]
+31.3 +3.4 17 +31  1003.2  -0.6  701  253           
15 22.06.18 тихо ()   20000 м    3/3 600 м кучево-дожд. 
[Cb cap]
+24.8 +10.2 40 +28  1005.6  0.9  701  257    +31.9       
18 22.06.18 тихо ()   н/о    6/6 600 м кучево-дожд. 
[Cb cap]
+21.2 +9.2 46 +23  1007.4  0.8  702  261    +31.9       
21 22.06.18 тихо ()   н/о    ясно 
+19.9 +8.4 47 +20  1007.4  -0.4  702  262           
00 23.06.18 020 (С) 1{11}  20000 м    ясно 
+17.9 +8.7 55 +20  1008.6  0.7  702  264           
06 23.06.18 160 (Ю) 20000 м    3/3 600 м кучево-дожд. 
[Cb calv]
+30.5 +10.9 30 +34  1003.8  -1.4  701  252  +17.9         
09 23.06.18 080 (В) 20000 м    4/4 600 м кучево-дожд. 
[Cb cap]
+33 +4.6 17 +33  1001.6  -1.7  700  251           
12 23.06.18 320 (СЗ) 11-15{15}  20000 м    6/6 600 м кучево-дожд. 
[Cb cap]
+29.8 +5 21 +30  1001.8  -0.5  699  253           
15 23.06.18 020 (С) 4{15}  20000 м    3/0 средняя 
[Ac lent]
+25.9 +6.9 30 +26  1002.8  0.1  699  256    +34.6       
18 23.06.18 040 (СВ) н/о    ясно 
+21.7 +6.2 37 +22  1003.8  699  260    +34.6       
21 23.06.18 140 (ЮВ) н/о    ясно 
+19.4 +6.4 43 +20  1003.8  -0.5  699  262           
00 24.06.18 360 (С) 1{15}  20000 м    3/0 средняя 
[Ac lent]
+17.5 +8.7 56 +20  1005.2  0.8  700  263           
03 24.06.18 130 (ЮВ) 20000 м    3/0 средняя 
[Ac lent]
+27.5 +9.2 32 +29  1002.2  -0.4  699  254           
06 24.06.18 110 (В) 20000 м    4/4 600 м кучево-дожд. 
[Cb cap]
+31.8 +8.1 23 +32  999  -2.1  698  250  +17.2         
09 24.06.18 140 (ЮВ) 20000 м    6/4 600 м кучево-дожд., верхняя 
[Cb cap|Cs]
+34 +5.4 17 +34  996.7  -1.7  697  249           
12 24.06.18 250 (З) 20000 м    9/5 600 м кучево-дожд., средняя, верхняя 
[Cb cap|Ac lent|Cs]
+31.1 +10.7 28 +35  997.4  0.2  697  250           
15 24.06.18 тихо ()   20000 м    9/4 600 м кучево-дожд., средняя, верхняя 
[Cb cap|Ac lent|Cs]
+24.5 +11.9 45 +30  1002.7  3.5  699  256    +34.6       
18 24.06.18 300 (СЗ) н/о    10/4 600 м кучево-дожд., средняя 
[Cb cap|Ac As]
+21.6 +12.5 56 +28  1006.5  2.8  701  259    +34.6       
21 24.06.18 тихо ()   н/о  {ливн. осадки}  10/4 600 м кучево-дожд., средняя 
[Cb cap|Ac As]
+18.8 +17.9 95 +35  1007.6  0.6  702  260           
00 25.06.18 тихо () {11}  20000 м  {ливн. осадки}  9/4 600 м средняя, верхняя 
[Sc diur, vesp|Ac As|Cs]
+18.2 +18.2 100 +35  1008.3  0.5  702  261           
03 25.06.18 120 (ЮВ) 20000 м    10/5 600 м кучево-дожд., средняя, верхняя 
[Cb cap|Ac As|Cs]
+20.7 +14.4 67 +30  1008.9  703  260           
06 25.06.18 260 (З) 20000 м    8/5 600 м кучево-дожд., средняя, верхняя 
[Cb cap|Ac trans|Ci fib]
+25.4 +9.9 38 +28  1006.6  -1.2  702  257  +18.2    0.4     
09 25.06.18 100 (В) 20000 м    8/8 600 м кучево-дожд. 
[Cb cap]
+28.8 +8.9 29 +30  1004.2  -1.5  701  254           
12 25.06.18 030 (СВ) 20000 м    8/8 600 м 
[Sc diur, vesp]
+27 +10.4 35 +30  1003.9  -0.6  701  255           
Время (UTC), дата Ветер
(°,м/с) 
Видим.   Явления Облачность Т
(°С)
Тd
(°С)
f(%) Тe
(°С)
Pmin
(гПа)
dP
(гПа)
Po
(мм)
O2
(г/м3)
Тmin Tmax R s Состояние
почвы

Для получения пояснительной информации подведите курсор к названию столбца.

ПОГОДА в Панфилове - архив

Всё, что Вы хотите узнать о погоде в Панфилове - удобно и подробно!

Выберите нужную дату (начиная с 1 января 2015* года) и нажмите кнопку "Найти".
Будут отображены архивные сводки погоды по пункту Панфилов, начиная с указанной даты.


Отображать данные в формате CSV (для использования в таблицах Excel)


Внимание! Наш архив погоды предназначен исключительно для личного некоммерческого использования в познавательных целях. Если Вам необходимы официальные справки о состоянии погоды (для производственных, юридических, коммерческих и т.п. целей), обращайтесь в органы Росгидромета.

*Примечание: данная дата относится к архиву по метеостанциям СССР (Россия, СНГ, Балтия).
Архив по метеостанциям Зарубежной Европы и Азии (кроме Китая) хранится 10 дней, по другим регионам земного шара (Китай, Африка, Америка, Австралия, Океания) - 1 день.

Панфилов - район местоположения метеостанции


Название, широта, долгота, высота метеостанции:
Панфилов 44.2°ш. 80.1°д. 645 м над ур. моря [Казахстан]

Дополнительная информация

В oтличие oт бoльшинства пoгoдных сайтoв мы публикуем пoдрoбную метеoинфoрмацию в детальнoм прoфессиoнальнoм фoрмате.

Характеристики температуры и влажнoсти вoздуха измеряются на высoте 2 м в тени вдали oт зданий и деревьев.
Скoрoсть ветра измеряется на высoте 10 м (на урoвне рoста челoвека скoрoсть ветра ниже в 1.5-2 раза). Если метеoстанция нахoдится в гoрoде или в лесу, тo скoрoсть ветра занижена на 2-4 м/с пo сравнению с oткрытым местoм. Скoрoсть ветра над акватoриями крупных рек и oзёр, а также на вершинах хoлмoв на 2-5 м/с выше, чем в oбычных услoвиях.
Атмoсфернoе давление в разных тoчках местнoсти мoжет значительнo oтличаться oт давления на метеoстанции, в зависимoсти oт услoвий рельефа (при пoдъёме на 10 м давление пoнижается примернo на 1 мм рт.ст.).